ATLAS 5 CENTAUR DEB, 44650

Orbit data source: Space-Track

ATLAS 5 CENTAUR DEB, 44650 is space debris in HEO originally from a launch on Wed, 17 Oct 2018 UTC launched from the Air Force Eastern Test Range (AFETR). Debris objects in space refer to the collection of defunct objects orbiting the Earth. Examples of debris include non-operational satellites, rocket bodies, and fragments generated from explosions, collisions, or faulty payload assembly.

Loading next visibility...
Identifier
44650, 2018-079L
Orbit
HEO
Country
Flag of USUS
Related business
Flag of USUnited Launch Alliance/Lockheed Martin (US)
Manufacturer
ULA Decatur
Mission
Spacecraft
Bus & Motor
Unknown
Mass
Unknown
Launch date (UTC)
2018-10-17 (8 years ago)
Launch vehicle
Unknown
Launch site
Air Force Eastern Test Range (AFETR)
Object type
Payload
Rocket body
Debris
Shape & HBR
Unknown shape, 1.1 m
Radar Cross Section
Medium (>0.1 m² and <1 m²)

Expand to show TLE details & history
Last TLE update: 1 day ago

TLE from 1 day ago
0 ATLAS 5 CENTAUR DEB
1 44650U 18079L   26234.84248537 -.00000156  00000-0  00000-0 0  9995
2 44650  13.1569  25.0263 4443876 344.9317   5.1252  1.90422718 51422
Epoch: 2026-08-22T20:13Z
TLE epoch observation values (Epoch: 2026-08-22T20:13:10.735Z)
Latitude
-0.00003°
Longitude
110.61206°
Altitude
9,065.425 km
Speed
6.093 km/s
True Right ascension
01h 40m 12s
True Declination
0° 00' 00"
Sunlit
Object was in daylight at epoch
Visualization orbit readout
Latitude
Unknown
Longitude
Unknown
Altitude
Unknown
Speed
Unknown
Apparent Right ascension
Unknown
Apparent Declination
Unknown
Sunlit
N/A
Visualization observer readout
Local Sidereal Time
16:24:25
Azimuth
Unknown
Elevation
Unknown
Doppler factor
Unknown
Orbital elements
Apogee altitude
33,338.501 km
Perigee altitude
8,899.657 km
Semi-major axis
27,497.216 km
Eccentricity
0.44439
Inclination
13.1569°
RAAN
25.0263°
Arg. of periapsis
344.9317°
True anomaly
14.77158°
Mean anomaly
5.1252°
Eccentric anomaly
9.19291°
Mean motion
0.476 °/min
Orbital period
756.3 mins
BSTAR
0
Loading maneuver chart data...
Computing Atmospheric mass density...

Documentation

Showing up to 5 results
|